Terminal Aerodrome Forecast
Issued by NWS San Angelo, TX

Home | Current Version | Previous Version | Text Only | Print | Product List | Glossary On
Versions: 1 2 3 4 5 6 7 8 9 10 11 12
000
FTUS44 KSJT 031100
TAFABI
TAF
KABI 031120Z 0312/0412 18012KT P6SM SKC
     FM031500 17015G21KT P6SM SCT250
     FM040900 16012KT P6SM OVC015=

USA.gov is the U.S. government's official web portal to all federal, state and local government web resources and services.